Darstellungsparameter: Aktuell verwendete Einstellungen:
Skalierung der Graphiken ... ?
xyx+y,   Skalierungsfaktor:      Skalierung: Modus: x, Faktor: 1
Darstellungszeitraum ... ?
Vom - - bis: - -   Zeitraum: 03.05.2020 - 02.08.2020
Min/Max/Avg-Anzeige ... ?
Zeige MMA aktuell
Zeige MMA Monat
Zeige MMA alles
Zeige --A aktuell
Zeige --A Monat
Zeige --A alles
Keine MMA-Anzeige
MMA:
Keine MMA-Graphiken
MMA-Basis: 03.05.2020 - 02.08.2020
Quicknavigation für Darstellung... ?
Tage:      1T, 2T, 3T, 5T -1T -2T -3T -5T +1T +2T +3T +5T
Wochen: 1W, 2W, 3W -1W -2W -3W +1W +2W +3W
Monate: 1M, 3M, 6M -1M -3M -6M +1M +3M +6M
Jahre:    1J, 3J, 5J, 10J -1J -3J -5J -10J +1J +3J +5J +10J
Nutze für die Darstellung ... ?
Originaldaten oder ...
Mittelwerte Minima Maxima auf...
Stundenbasis Tagesbasis Wochenbasis
Monatsbasis Jahresbasis      Datenbasis: Mittelwerte auf Tagesbasis
Darstellen als:
Statistik (Auto) Statistik J:M      Darstellung:
Zur Graphik,    zurück zur Übersicht aller Sensoren.
 
Tabellarische Datenbersicht: ?
 
Sensor: Nr:Datum:Temp:Feuchte:Taupunkt:
Aussen-T/F 1 03-05-2020 00:00:00 10.39028 C 77.2500 % 6.59 C
2 04-05-2020 00:00:00 11.82361 C 83.7986 % 9.18 C
3 05-05-2020 00:00:00 10.30833 C 68.8333 % 4.84 C
4 06-05-2020 00:00:00 10.34687 C 62.9375 % 3.61 C
5 07-05-2020 00:00:00 12.36771 C 67.0278 % 6.43 C
6 08-05-2020 00:00:00 15.11146 C 64.7535 % 8.53 C
7 09-05-2020 00:00:00 15.97396 C 71.7986 % 10.89 C
8 10-05-2020 00:00:00 15.5441 C 87.0729 % 13.4 C
9 11-05-2020 00:00:00 9.41007 C 72.6944 % 4.76 C
10 12-05-2020 00:00:00 7.67674 C 65.0833 % 1.54 C
11 13-05-2020 00:00:00 8.92604 C 67.5104 % 3.25 C
12 14-05-2020 00:00:00 9.71389 C 66.2535 % 3.73 C
13 15-05-2020 00:00:00 10.43264 C 60.9375 % 3.23 C
14 16-05-2020 00:00:00 11.17396 C 64.1319 % 4.66 C
15 17-05-2020 00:00:00 13.11528 C 63.3750 % 6.33 C
16 18-05-2020 00:00:00 15.67292 C 64.9167 % 9.1 C
17 19-05-2020 00:00:00 16.60729 C 65.8542 % 10.2 C
18 20-05-2020 00:00:00 17.77917 C 71.9375 % 12.65 C
19 21-05-2020 00:00:00 19.01562 C 69.2535 % 13.26 C
20 22-05-2020 00:00:00 19.97639 C 75.2535 % 15.46 C
21 23-05-2020 00:00:00 13.69236 C 87.6181 % 11.68 C
22 24-05-2020 00:00:00 13.58542 C 74.5799 % 9.16 C
23 25-05-2020 00:00:00 15.93854 C 74.9514 % 11.51 C
24 26-05-2020 00:00:00 14.58437 C 71.8056 % 9.56 C
25 27-05-2020 00:00:00 16.48611 C 64.8958 % 9.87 C
Sensor: Nr:Datum:Temp:Feuchte:Taupunkt:
Aussen-T/F 26 28-05-2020 00:00:00 17.49132 C 54.2049 % 8.15 C
27 29-05-2020 00:00:00 15.20764 C 57.9097 % 6.98 C
28 30-05-2020 00:00:00 15.6941 C 55.5278 % 6.83 C
29 31-05-2020 00:00:00 15.11597 C 60.7847 % 7.61 C
30 01-06-2020 00:00:00 17.87257 C 60.3785 % 10.1 C
31 02-06-2020 00:00:00 19.76701 C 57.8264 % 11.23 C
32 03-06-2020 00:00:00 19.96667 C 60.3333 % 12.06 C
33 04-06-2020 00:00:00 14.67257 C 91.4792 % 13.3 C
34 05-06-2020 00:00:00 11.51111 C 85.9722 % 9.25 C
35 06-06-2020 00:00:00 12.4684 C 81.1806 % 9.33 C
36 07-06-2020 00:00:00 13.39861 C 74.3194 % 8.93 C
37 08-06-2020 00:00:00 14.75035 C 72.9375 % 9.95 C
38 09-06-2020 00:00:00 13.99236 C 88.3715 % 12.1 C
39 10-06-2020 00:00:00 15.4 C 85.7326 % 13.02 C
40 11-06-2020 00:00:00 15.74271 C 85.5799 % 13.33 C
41 12-06-2020 00:00:00 19.42083 C 73.5938 % 14.58 C
42 13-06-2020 00:00:00 20.95799 C 70.8958 % 15.48 C
43 14-06-2020 00:00:00 18.87917 C 80.4340 % 15.44 C
44 15-06-2020 00:00:00 18.60291 C 80.5345 % 15.19 C
45 16-06-2020 00:00:00 18.0434 C 88.9236 % 16.19 C
46 17-06-2020 00:00:00 17.45903 C 89.6771 % 15.75 C
47 18-06-2020 00:00:00 18.51528 C 77.4028 % 14.49 C
48 19-06-2020 00:00:00 16.72674 C 84.4549 % 14.09 C
49 20-06-2020 00:00:00 16.94271 C 84.7535 % 14.36 C
50 21-06-2020 00:00:00 19.05278 C 74.7396 % 14.47 C
Sensor: Nr:Datum:Temp:Feuchte:Taupunkt:
Aussen-T/F 51 22-06-2020 00:00:00 18.83785 C 72.4236 % 13.77 C
52 23-06-2020 00:00:00 19.59583 C 68.6840 % 13.69 C
53 24-06-2020 00:00:00 21.22153 C 60.2153 % 13.21 C
54 25-06-2020 00:00:00 21.70278 C 67.7535 % 15.48 C
55 26-06-2020 00:00:00 21.67743 C 70.8264 % 16.15 C
56 27-06-2020 00:00:00 22.68785 C 72.4479 % 17.48 C
57 28-06-2020 00:00:00 19.86979 C 72.4236 % 14.77 C
58 29-06-2020 00:00:00 17.69792 C 71.6701 % 12.52 C
59 30-06-2020 00:00:00 16.88194 C 71.2639 % 11.65 C
60 01-07-2020 00:00:00 21.29896 C 71.3889 % 15.91 C
61 02-07-2020 00:00:00 18.73125 C 81.7639 % 15.55 C
62 03-07-2020 00:00:00 17.73958 C 72.1597 % 12.66 C
63 04-07-2020 00:00:00 19.09826 C 68.4722 % 13.16 C
64 05-07-2020 00:00:00 22.80243 C 71.1076 % 17.29 C
65 06-07-2020 00:00:00 16.79653 C 65.8646 % 10.38 C
66 07-07-2020 00:00:00 16.09792 C 67.7292 % 10.14 C
67 08-07-2020 00:00:00 15.87639 C 86.0139 % 13.54 C
68 09-07-2020 00:00:00 21.61424 C 74.6667 % 16.92 C
69 10-07-2020 00:00:00 18.63368 C 78.6215 % 14.85 C
70 11-07-2020 00:00:00 16.57431 C 67.3646 % 10.51 C
71 12-07-2020 00:00:00 16.85382 C 66.0139 % 10.47 C
72 13-07-2020 00:00:00 19.08542 C 59.6354 % 11.05 C
73 14-07-2020 00:00:00 18.66215 C 67.1389 % 12.45 C
74 15-07-2020 00:00:00 17.55208 C 72.7569 % 12.61 C
75 16-07-2020 00:00:00 16.0875 C 88.8715 % 14.25 C
Sensor: Nr:Datum:Temp:Feuchte:Taupunkt:
Aussen-T/F 76 17-07-2020 00:00:00 18.58611 C 80.2222 % 15.11 C
77 18-07-2020 00:00:00 19.51944 C 74.3264 % 14.83 C
78 19-07-2020 00:00:00 22.30451 C 63.0590 % 14.94 C
79 20-07-2020 00:00:00 19.42708 C 71.6215 % 14.17 C
80 21-07-2020 00:00:00 17.64722 C 62.2118 % 10.34 C
81 22-07-2020 00:00:00 17.13264 C 62.9931 % 10.04 C
82 23-07-2020 00:00:00 18.84618 C 60.0208 % 10.93 C
83 24-07-2020 00:00:00 21.21007 C 59.2118 % 12.94 C
84 25-07-2020 00:00:00 21.01562 C 67.9618 % 14.88 C
85 26-07-2020 00:00:00 20.87674 C 70.5660 % 15.33 C
86 27-07-2020 00:00:00 21.66215 C 63.9306 % 14.54 C
87 28-07-2020 00:00:00 22.91424 C 54.3299 % 13.21 C
88 29-07-2020 00:00:00 18.94583 C 61.6007 % 11.41 C
89 30-07-2020 00:00:00 20.4309 C 59.1424 % 12.19 C
90 31-07-2020 00:00:00 24.16007 C 52.9340 % 13.96 C
91 01-08-2020 00:00:00 21.98437 C 78.4896 % 18.07 C
92 02-08-2020 00:00:00 21.28472 C 73.8993 % 16.44 C

Maximal/Minimal-Werte vom 03.05.2020 - 02.08.2020

Sensor Min Max Avg
Temp
(Aussen-T/F)
0.9 °C
12-05-2020  06:55:00
37.9 °C
31-07-2020  17:55:00
17.12 °C
Feuchte
(Aussen-T/F)
21 %
31-07-2020  17:15:00
98 %
20-06-2020  08:20:00
71.15 %
Taupunkt
(Aussen-T/F)
1.54 C
12-05-2020  00:00:00
18.07 C
01-08-2020  00:00:00
11.61 C

Die Daten stammen von einer Davis Vantage Pro 2 Wetter-Station und werden unter Linux mit der Software wview2wettercgi und aufbereitet. Alle Angaben erfolgen ohne Gewähr für ihre Vollständigkeit oder Richtigkeit.
Kontakt: Rainer Krienke krienke@uni-koblenz.de . Meine Webseiten an der Uni Koblenz oder privat.
Version: $Revision: 0.78 $